| time (UTC) | temp F | wind direction | speed MPH | gust MPH | rain 1hr in | rain 24hr in | rain mn in | humidity % | barometer mb |
| 20260507061228 | 39 | 222 | 0.0 | 2.0 | 0.00 | 0.00 | 0.00 | 62 | 1013.6 |
| 20260507060730 | 39 | 221 | 0.0 | 2.0 | 0.00 | 0.00 | 0.00 | 63 | 1013.6 |
| 20260507060224 | 39 | 236 | 0.0 | 3.0 | 0.00 | 0.00 | 0.00 | 62 | 1013.7 |
| 20260507055724 | 39 | 242 | 1.0 | 3.0 | 0.00 | 0.00 | 0.00 | 63 | 1013.7 |
| 20260507055224 | 39 | 248 | 1.0 | 3.0 | 0.00 | 0.00 | 0.00 | 62 | 1013.6 |
| 20260507054725 | 39 | 248 | 1.0 | 4.0 | 0.00 | 0.00 | 0.00 | 62 | 1013.7 |
| 20260507054225 | 39 | 240 | 1.0 | 4.0 | 0.00 | 0.00 | 0.00 | 62 | 1013.7 |
| 20260507053723 | 39 | 248 | 1.0 | 3.0 | 0.00 | 0.00 | 0.00 | 62 | 1013.7 |
| 20260507052722 | 39 | 236 | 1.0 | 5.0 | 0.00 | 0.00 | 0.00 | 62 | 1013.7 |
| 20260507052222 | 40 | 234 | 2.0 | 5.0 | 0.00 | 0.00 | 0.00 | 62 | 1013.8 |
| 20260507051722 | 39 | 234 | 2.0 | 5.0 | 0.00 | 0.00 | 0.00 | 62 | 1013.8 |
| 20260507051223 | 39 | 234 | 1.0 | 4.0 | 0.00 | 0.00 | 0.00 | 62 | 1013.9 |
| 20260507045221 | 40 | 217 | 1.0 | 4.0 | 0.00 | 0.00 | 0.00 | 62 | 1014.0 |
| 20260507044718 | 40 | 236 | 1.0 | 4.0 | 0.00 | 0.00 | 0.00 | 61 | 1014.0 |
| 20260507044217 | 40 | 242 | 1.0 | 2.0 | 0.00 | 0.00 | 0.00 | 61 | 1014.0 |
| 20260507043713 | 40 | 244 | 0.0 | 2.0 | 0.00 | 0.00 | 0.00 | 61 | 1014.0 |
| 20260507043213 | 40 | 244 | 0.0 | 2.0 | 0.00 | 0.00 | 0.00 | 61 | 1014.0 |
| 20260507042711 | 40 | 244 | 0.0 | 2.0 | 0.00 | 0.00 | 0.00 | 61 | 1014.1 |
| 20260507042207 | 40 | 244 | 0.0 | 2.0 | 0.00 | 0.00 | 0.00 | 61 | 1014.1 |
| 20260507041707 | 40 | 245 | 0.0 | 2.0 | 0.00 | 0.00 | 0.00 | 60 | 1014.2 |
| 20260507041206 | 40 | 246 | 1.0 | 3.0 | 0.00 | 0.00 | 0.00 | 60 | 1014.2 |
| 20260507040706 | 40 | 245 | 1.0 | 3.0 | 0.00 | 0.00 | 0.00 | 60 | 1014.3 |
| 20260507040203 | 40 | 234 | 1.0 | 3.0 | 0.00 | 0.00 | 0.00 | 59 | 1014.2 |
| 20260507035705 | 40 | 236 | 0.0 | 3.0 | 0.00 | 0.00 | 0.00 | 59 | 1014.3 |
| 20260507035203 | 41 | 236 | 0.0 | 3.0 | 0.00 | 0.00 | 0.00 | 59 | 1014.3 |
| 20260507034205 | 41 | 236 | 1.0 | 3.0 | 0.00 | 0.00 | 0.00 | 57 | 1014.4 |
| 20260507033701 | 41 | 236 | 0.0 | 3.0 | 0.00 | 0.00 | 0.00 | 57 | 1014.3 |
| 20260507033202 | 41 | 235 | 0.0 | 3.0 | 0.00 | 0.00 | 0.00 | 57 | 1014.3 |
| 20260507032702 | 41 | 235 | 1.0 | 2.0 | 0.00 | 0.00 | 0.00 | 57 | 1014.3 |
| 20260507032202 | 41 | 235 | 1.0 | 3.0 | 0.00 | 0.00 | 0.00 | 57 | 1014.4 |
| 20260507031701 | 41 | 235 | 1.0 | 3.0 | 0.00 | 0.00 | 0.00 | 56 | 1014.5 |
| 20260507030702 | 42 | 240 | 1.0 | 3.0 | 0.00 | 0.00 | 0.00 | 56 | 1014.4 |
| 20260507030202 | 42 | 255 | 0.0 | 3.0 | 0.00 | 0.00 | 0.00 | 56 | 1014.4 |
| 20260507025703 | 42 | 277 | 0.0 | 2.0 | 0.00 | 0.00 | 0.00 | 56 | 1014.4 |
| 20260507025201 | 42 | 291 | 0.0 | 2.0 | 0.00 | 0.00 | 0.00 | 56 | 1014.4 |
| 20260507024706 | 41 | 292 | 1.0 | 6.0 | 0.00 | 0.00 | 0.00 | 56 | 1014.4 |
| 20260507024203 | 41 | 298 | 2.0 | 6.0 | 0.00 | 0.00 | 0.00 | 55 | 1014.4 |
| 20260507023702 | 41 | 293 | 2.0 | 7.0 | 0.00 | 0.00 | 0.00 | 55 | 1014.4 |
| 20260507023203 | 41 | 286 | 2.0 | 7.0 | 0.00 | 0.00 | 0.00 | 55 | 1014.4 |
| 20260507022702 | 42 | 265 | 2.0 | 6.0 | 0.00 | 0.00 | 0.00 | 55 | 1014.4 |
| 20260507022203 | 42 | 259 | 2.0 | 8.0 | 0.00 | 0.00 | 0.00 | 55 | 1014.4 |
| 20260507021701 | 42 | 265 | 2.0 | 8.0 | 0.00 | 0.00 | 0.00 | 55 | 1014.4 |
| 20260507020701 | 42 | 246 | 2.0 | 7.0 | 0.00 | 0.00 | 0.00 | 55 | 1014.3 |
| 20260507020202 | 42 | 263 | 2.0 | 7.0 | 0.00 | 0.00 | 0.00 | 54 | 1014.4 |
| 20260507015656 | 42 | 279 | 2.0 | 7.0 | 0.00 | 0.00 | 0.00 | 54 | 1014.4 |
| 20260507015150 | 42 | 280 | 2.0 | 7.0 | 0.00 | 0.00 | 0.00 | 54 | 1014.3 |
| 20260507014645 | 42 | 275 | 2.0 | 7.0 | 0.00 | 0.00 | 0.00 | 53 | 1014.3 |
| 20260507014138 | 42 | 262 | 2.0 | 7.0 | 0.00 | 0.00 | 0.00 | 53 | 1014.3 |
| 20260507013632 | 42 | 276 | 3.0 | 8.0 | 0.00 | 0.00 | 0.00 | 53 | 1014.4 |
| 20260507013128 | 42 | 301 | 3.0 | 8.0 | 0.00 | 0.00 | 0.00 | 53 | 1014.3 |
| 20260507012621 | 42 | 281 | 3.0 | 8.0 | 0.00 | 0.00 | 0.00 | 53 | 1014.3 |
| 20260507012114 | 42 | 281 | 3.0 | 7.0 | 0.00 | 0.00 | 0.00 | 53 | 1014.4 |
| 20260507011608 | 42 | 275 | 2.0 | 7.0 | 0.00 | 0.00 | 0.00 | 52 | 1014.4 |
| 20260507010106 | 42 | 293 | 5.0 | 9.0 | 0.00 | 0.00 | 0.00 | 51 | 1014.4 |
| 20260507005605 | 43 | 265 | 4.0 | 11.0 | 0.00 | 0.00 | 0.00 | 51 | 1014.6 |
| 20260507005104 | 43 | 292 | 4.0 | 11.0 | 0.00 | 0.00 | 0.00 | 51 | 1014.5 |
| 20260507004603 | 43 | 271 | 5.0 | 12.0 | 0.00 | 0.00 | 0.00 | 51 | 1014.6 |
| 20260507004101 | 43 | 298 | 6.0 | 12.0 | 0.00 | 0.00 | 0.00 | 51 | 1014.6 |
| 20260507003603 | 43 | 273 | 5.0 | 12.0 | 0.00 | 0.00 | 0.00 | 51 | 1014.6 |
| 20260507003103 | 43 | 288 | 5.0 | 12.0 | 0.00 | 0.00 | 0.00 | 50 | 1014.6 |
| 20260507002603 | 43 | 332 | 6.0 | 11.0 | 0.00 | 0.00 | 0.00 | 50 | 1014.6 |
| 20260507002101 | 43 | 293 | 6.0 | 12.0 | 0.00 | 0.00 | 0.00 | 50 | 1014.6 |
| 20260507001602 | 43 | 284 | 7.0 | 12.0 | 0.00 | 0.00 | 0.00 | 50 | 1014.6 |
| 20260507001103 | 43 | 272 | 6.0 | 11.0 | 0.00 | 0.00 | 0.00 | 49 | 1014.6 |
| 20260506235601 | 43 | 286 | 7.0 | 14.0 | 0.00 | 0.00 | 0.00 | 50 | 1014.6 |
| 20260506235101 | 43 | 243 | 7.0 | 14.0 | 0.00 | 0.00 | 0.00 | 49 | 1014.6 |
| 20260506234608 | 43 | 261 | 7.0 | 12.0 | 0.00 | 0.00 | 0.00 | 49 | 1014.6 |
| 20260506234101 | 43 | 234 | 7.0 | 13.0 | 0.00 | 0.00 | 0.00 | 49 | 1014.7 |
| 20260506233555 | 44 | 251 | 5.0 | 13.0 | 0.00 | 0.00 | 0.00 | 49 | 1014.7 |
| 20260506233050 | 44 | 243 | 4.0 | 11.0 | 0.00 | 0.00 | 0.00 | 50 | 1014.7 |
| 20260506232544 | 44 | 256 | 4.0 | 12.0 | 0.00 | 0.00 | 0.00 | 50 | 1014.7 |
| 20260506232035 | 44 | 229 | 4.0 | 12.0 | 0.00 | 0.00 | 0.00 | 50 | 1014.7 |
| 20260506231533 | 44 | 232 | 5.0 | 11.0 | 0.00 | 0.00 | 0.00 | 50 | 1014.7 |
| 20260506231034 | 44 | 257 | 5.0 | 12.0 | 0.00 | 0.00 | 0.00 | 50 | 1014.7 |
| 20260506230533 | 44 | 302 | 5.0 | 12.0 | 0.00 | 0.00 | 0.00 | 50 | 1014.7 |
| 20260506230033 | 43 | 227 | 6.0 | 13.0 | 0.00 | 0.00 | 0.00 | 50 | 1014.7 |
| 20260506225533 | 43 | 252 | 7.0 | 15.0 | 0.00 | 0.00 | 0.00 | 50 | 1014.8 |
| 20260506225033 | 44 | 208 | 7.0 | 15.0 | 0.00 | 0.00 | 0.00 | 50 | 1014.7 |
| 20260506224531 | 44 | 286 | 6.0 | 14.0 | 0.00 | 0.00 | 0.00 | 50 | 1014.7 |
| 20260506224029 | 44 | 306 | 5.0 | 12.0 | 0.00 | 0.00 | 0.00 | 50 | 1014.8 |
| 20260506223531 | 44 | 223 | 5.0 | 11.0 | 0.00 | 0.00 | 0.00 | 50 | 1014.8 |
| 20260506223030 | 44 | 274 | 6.0 | 13.0 | 0.00 | 0.00 | 0.00 | 50 | 1014.8 |
| 20260506222529 | 43 | 311 | 7.0 | 13.0 | 0.00 | 0.00 | 0.00 | 50 | 1014.8 |
| 20260506222029 | 44 | 279 | 7.0 | 14.0 | 0.00 | 0.00 | 0.00 | 50 | 1014.8 |
| 20260506221530 | 44 | 264 | 7.0 | 14.0 | 0.00 | 0.00 | 0.00 | 50 | 1014.8 |
| 20260506220530 | 44 | 274 | 6.0 | 15.0 | 0.00 | 0.00 | 0.00 | 50 | 1014.9 |
| 20260506220028 | 43 | 251 | 6.0 | 12.0 | 0.00 | 0.00 | 0.00 | 50 | 1014.9 |
| 20260506215531 | 43 | 235 | 6.0 | 13.0 | 0.00 | 0.00 | 0.00 | 50 | 1014.9 |
| 20260506215026 | 43 | 257 | 6.0 | 13.0 | 0.00 | 0.00 | 0.00 | 50 | 1015.0 |
| 20260506214520 | 43 | 309 | 7.0 | 15.0 | 0.00 | 0.00 | 0.00 | 51 | 1015.0 |
| 20260506214015 | 43 | 297 | 9.0 | 17.0 | 0.00 | 0.00 | 0.00 | 50 | 1015.1 |
| 20260506213509 | 43 | 229 | 9.0 | 17.0 | 0.00 | 0.00 | 0.00 | 50 | 1015.1 |
| 20260506212504 | 43 | 290 | 7.0 | 12.0 | 0.00 | 0.00 | 0.00 | 51 | 1015.1 |
| 20260506212003 | 43 | 246 | 7.0 | 13.0 | 0.00 | 0.00 | 0.00 | 50 | 1015.2 |
| 20260506211503 | 43 | 213 | 7.0 | 13.0 | 0.00 | 0.00 | 0.00 | 50 | 1015.3 |
| 20260506211003 | 43 | 268 | 7.0 | 13.0 | 0.00 | 0.00 | 0.00 | 50 | 1015.4 |
| 20260506210503 | 42 | 227 | 7.0 | 13.0 | 0.00 | 0.00 | 0.00 | 50 | 1015.3 |
| 20260506210003 | 42 | 304 | 7.0 | 13.0 | 0.00 | 0.00 | 0.00 | 50 | 1015.4 |
| 20260506205503 | 42 | 258 | 8.0 | 13.0 | 0.00 | 0.00 | 0.00 | 50 | 1015.3 |
| 20260506205003 | 42 | 246 | 9.0 | 17.0 | 0.00 | 0.00 | 0.00 | 50 | 1015.4 |
| 20260506204503 | 42 | 282 | 10.0 | 17.0 | 0.00 | 0.00 | 0.00 | 50 | 1015.4 |
| 20260506204001 | 42 | 300 | 10.0 | 17.0 | 0.00 | 0.00 | 0.00 | 50 | 1015.4 |
| 20260506203502 | 42 | 302 | 9.0 | 17.0 | 0.00 | 0.00 | 0.00 | 51 | 1015.5 |
| 20260506203002 | 42 | 275 | 9.0 | 16.0 | 0.00 | 0.00 | 0.00 | 51 | 1015.5 |
| 20260506202503 | 42 | 329 | 8.0 | 17.0 | 0.00 | 0.00 | 0.00 | 51 | 1015.6 |
| 20260506201503 | 42 | 273 | 7.0 | 16.0 | 0.00 | 0.00 | 0.00 | 51 | 1015.5 |
| 20260506200958 | 42 | 277 | 7.0 | 13.0 | 0.00 | 0.00 | 0.00 | 52 | 1015.5 |
| 20260506195951 | 42 | 280 | 5.0 | 13.0 | 0.00 | 0.00 | 0.00 | 51 | 1015.6 |
| 20260506195451 | 42 | 239 | 4.0 | 11.0 | 0.00 | 0.00 | 0.00 | 52 | 1015.7 |
| 20260506194449 | 41 | 290 | 7.0 | 12.0 | 0.00 | 0.00 | 0.00 | 52 | 1015.7 |
| 20260506193949 | 41 | 292 | 7.0 | 13.0 | 0.00 | 0.00 | 0.00 | 52 | 1015.7 |
| 20260506193446 | 42 | 265 | 6.0 | 13.0 | 0.00 | 0.00 | 0.00 | 53 | 1015.6 |
| 20260506192947 | 41 | 265 | 6.0 | 13.0 | 0.00 | 0.00 | 0.00 | 52 | 1015.7 |
| 20260506192448 | 41 | 255 | 7.0 | 13.0 | 0.00 | 0.00 | 0.00 | 53 | 1015.7 |
| 20260506191949 | 41 | 307 | 6.0 | 13.0 | 0.00 | 0.00 | 0.00 | 53 | 1015.9 |
| 20260506190948 | 41 | 227 | 6.0 | 14.0 | 0.00 | 0.00 | 0.00 | 54 | 1015.9 |
| 20260506190447 | 40 | 300 | 6.0 | 13.0 | 0.00 | 0.00 | 0.00 | 54 | 1015.9 |
| 20260506185945 | 40 | 299 | 9.0 | 18.0 | 0.00 | 0.00 | 0.00 | 54 | 1015.7 |
| 20260506185445 | 40 | 227 | 9.0 | 18.0 | 0.00 | 0.00 | 0.00 | 54 | 1015.7 |
| 20260506184945 | 40 | 269 | 9.0 | 17.0 | 0.00 | 0.00 | 0.00 | 53 | 1015.9 |
| 20260506184446 | 40 | 293 | 7.0 | 14.0 | 0.00 | 0.00 | 0.00 | 54 | 1015.9 |
| 20260506183944 | 40 | 306 | 6.0 | 12.0 | 0.00 | 0.00 | 0.00 | 54 | 1015.9 |
| 20260506183445 | 40 | 313 | 7.0 | 16.0 | 0.00 | 0.00 | 0.00 | 54 | 1015.9 |
| 20260506182946 | 40 | 227 | 8.0 | 16.0 | 0.00 | 0.00 | 0.00 | 54 | 1016.0 |
| 20260506182445 | 40 | 232 | 6.0 | 14.0 | 0.00 | 0.00 | 0.00 | 54 | 1016.0 |
| 20260506181443 | 40 | 325 | 6.0 | 10.0 | 0.00 | 0.00 | 0.00 | 54 | 1016.0 |
| 20260506180941 | 40 | 302 | 7.0 | 13.0 | 0.00 | 0.00 | 0.00 | 54 | 1016.0 |
| 20260506180440 | 40 | 268 | 8.0 | 13.0 | 0.00 | 0.00 | 0.00 | 54 | 1016.0 |
| 20260506175942 | 40 | 269 | 6.0 | 12.0 | 0.00 | 0.00 | 0.00 | 54 | 1016.0 |
| 20260506175441 | 40 | 273 | 5.0 | 11.0 | 0.00 | 0.00 | 0.00 | 54 | 1016.2 |
| 20260506174940 | 40 | 232 | 7.0 | 19.0 | 0.00 | 0.00 | 0.00 | 54 | 1016.1 |
| 20260506174442 | 40 | 285 | 8.0 | 19.0 | 0.00 | 0.00 | 0.00 | 54 | 1016.2 |
| 20260506173941 | 39 | 0 | 7.0 | 14.0 | 0.00 | 0.00 | 0.00 | 54 | 1016.2 |
| 20260506173442 | 39 | 312 | 8.0 | 15.0 | 0.00 | 0.00 | 0.00 | 54 | 1016.1 |
| 20260506172937 | 39 | 258 | 9.0 | 15.0 | 0.00 | 0.00 | 0.00 | 55 | 1016.2 |
| 20260506170938 | 39 | 343 | 7.0 | 14.0 | 0.00 | 0.00 | 0.00 | 55 | 1016.3 |
| 20260506170436 | 39 | 290 | 4.0 | 14.0 | 0.00 | 0.00 | 0.00 | 54 | 1016.4 |
| 20260506165937 | 39 | 301 | 3.0 | 11.0 | 0.00 | 0.00 | 0.00 | 55 | 1016.4 |
| 20260506164939 | 38 | 303 | 7.0 | 14.0 | 0.00 | 0.00 | 0.00 | 55 | 1016.4 |
| 20260506164432 | 38 | 336 | 7.0 | 14.0 | 0.00 | 0.00 | 0.00 | 56 | 1016.5 |
| 20260506163432 | 38 | 294 | 6.0 | 13.0 | 0.00 | 0.00 | 0.00 | 56 | 1016.5 |
| 20260506162432 | 38 | 275 | 7.0 | 14.0 | 0.00 | 0.00 | 0.00 | 56 | 1016.6 |
| 20260506161932 | 38 | 271 | 6.0 | 13.0 | 0.00 | 0.00 | 0.00 | 56 | 1016.6 |
| 20260506160930 | 38 | 290 | 7.0 | 12.0 | 0.00 | 0.00 | 0.00 | 57 | 1016.5 |
| 20260506155930 | 38 | 272 | 6.0 | 13.0 | 0.00 | 0.00 | 0.00 | 57 | 1016.7 |
| 20260506154929 | 37 | 260 | 6.0 | 13.0 | 0.00 | 0.00 | 0.00 | 57 | 1016.6 |
| 20260506154429 | 37 | 285 | 6.0 | 13.0 | 0.00 | 0.00 | 0.00 | 57 | 1016.5 |
| 20260506153931 | 37 | 256 | 7.0 | 16.0 | 0.00 | 0.00 | 0.00 | 58 | 1016.6 |
| 20260506153428 | 37 | 259 | 7.0 | 16.0 | 0.00 | 0.00 | 0.00 | 58 | 1016.5 |
| 20260506152919 | 37 | 281 | 6.0 | 14.0 | 0.00 | 0.00 | 0.00 | 58 | 1016.6 |
| 20260506152421 | 37 | 302 | 6.0 | 13.0 | 0.00 | 0.00 | 0.00 | 58 | 1016.5 |
| 20260506151917 | 37 | 290 | 6.0 | 13.0 | 0.00 | 0.00 | 0.00 | 59 | 1016.5 |
| 20260506151418 | 36 | 305 | 7.0 | 13.0 | 0.00 | 0.00 | 0.00 | 59 | 1016.5 |
| 20260506150916 | 37 | 286 | 7.0 | 13.0 | 0.00 | 0.00 | 0.00 | 59 | 1016.6 |
| 20260506150415 | 37 | 244 | 6.0 | 13.0 | 0.00 | 0.00 | 0.00 | 59 | 1016.6 |
| 20260506145914 | 37 | 259 | 5.0 | 12.0 | 0.00 | 0.00 | 0.00 | 60 | 1016.6 |
| 20260506145416 | 37 | 323 | 6.0 | 13.0 | 0.00 | 0.00 | 0.00 | 60 | 1016.6 |
| 20260506144412 | 37 | 323 | 7.0 | 14.0 | 0.00 | 0.00 | 0.00 | 60 | 1016.6 |
| 20260506143911 | 37 | 290 | 6.0 | 11.0 | 0.00 | 0.00 | 0.00 | 59 | 1016.5 |
| 20260506143409 | 36 | 313 | 6.0 | 12.0 | 0.00 | 0.00 | 0.00 | 60 | 1016.6 |
| 20260506142910 | 36 | 294 | 8.0 | 14.0 | 0.00 | 0.00 | 0.00 | 60 | 1016.5 |
| 20260506142407 | 36 | 292 | 10.0 | 17.0 | 0.00 | 0.00 | 0.00 | 59 | 1016.5 |
| 20260506141905 | 36 | 277 | 10.0 | 17.0 | 0.00 | 0.00 | 0.00 | 61 | 1016.5 |
| 20260506141407 | 36 | 301 | 10.0 | 16.0 | 0.00 | 0.00 | 0.00 | 61 | 1016.4 |
| 20260506140406 | 36 | 305 | 5.0 | 13.0 | 0.00 | 0.00 | 0.00 | 61 | 1016.4 |
| 20260506135403 | 36 | 315 | 8.0 | 15.0 | 0.00 | 0.00 | 0.00 | 61 | 1016.3 |
| 20260506134901 | 36 | 331 | 8.0 | 15.0 | 0.00 | 0.00 | 0.00 | 61 | 1016.2 |
| 20260506133849 | 37 | 341 | 7.0 | 13.0 | 0.00 | 0.00 | 0.00 | 61 | 1016.1 |
| 20260506133343 | 37 | 315 | 8.0 | 15.0 | 0.00 | 0.00 | 0.00 | 62 | 1016.0 |
| 20260506132841 | 37 | 294 | 10.0 | 16.0 | 0.00 | 0.00 | 0.00 | 62 | 1016.0 |
| 20260506132342 | 37 | 307 | 8.0 | 16.0 | 0.00 | 0.00 | 0.00 | 60 | 1015.9 |
| 20260506131839 | 37 | 286 | 7.0 | 15.0 | 0.00 | 0.00 | 0.00 | 62 | 1015.7 |
| 20260506131340 | 37 | 314 | 7.0 | 15.0 | 0.00 | 0.00 | 0.00 | 62 | 1015.6 |
| 20260506130839 | 37 | 299 | 6.0 | 13.0 | 0.00 | 0.00 | 0.00 | 62 | 1015.6 |
| 20260506130336 | 36 | 288 | 6.0 | 15.0 | 0.00 | 0.00 | 0.00 | 63 | 1015.6 |
| 20260506125333 | 36 | 297 | 6.0 | 16.0 | 0.00 | 0.00 | 0.00 | 63 | 1015.4 |
| 20260506124834 | 36 | 314 | 7.0 | 14.0 | 0.00 | 0.00 | 0.00 | 64 | 1015.5 |
| 20260506124331 | 36 | 277 | 7.0 | 14.0 | 0.00 | 0.00 | 0.00 | 63 | 1015.4 |
| 20260506123830 | 36 | 296 | 7.0 | 12.0 | 0.00 | 0.00 | 0.00 | 64 | 1015.4 |
| 20260506123330 | 36 | 309 | 7.0 | 11.0 | 0.00 | 0.00 | 0.00 | 64 | 1015.3 |
| 20260506122829 | 36 | 323 | 6.0 | 15.0 | 0.00 | 0.00 | 0.00 | 64 | 1015.3 |
| 20260506122329 | 36 | 285 | 6.0 | 15.0 | 0.00 | 0.00 | 0.00 | 64 | 1015.3 |
| 20260506121829 | 36 | 267 | 5.0 | 11.0 | 0.00 | 0.00 | 0.00 | 64 | 1015.1 |
| 20260506121330 | 35 | 292 | 4.0 | 14.0 | 0.00 | 0.00 | 0.00 | 65 | 1015.1 |
| 20260506120830 | 35 | 306 | 5.0 | 14.0 | 0.00 | 0.00 | 0.00 | 65 | 1015.0 |
| 20260506120329 | 35 | 256 | 5.0 | 13.0 | 0.00 | 0.00 | 0.00 | 65 | 1014.9 |
| 20260506115830 | 35 | 311 | 5.0 | 12.0 | 0.00 | 0.00 | 0.00 | 65 | 1014.9 |
| 20260506115323 | 35 | 275 | 5.0 | 10.0 | 0.00 | 0.00 | 0.00 | 65 | 1014.8 |
| 20260506113308 | 35 | 253 | 3.0 | 7.0 | 0.00 | 0.00 | 0.00 | 66 | 1014.7 |
| 20260506112807 | 35 | 260 | 3.0 | 7.0 | 0.00 | 0.00 | 0.00 | 66 | 1014.7 |
| 20260506112306 | 35 | 271 | 3.0 | 7.0 | 0.00 | 0.00 | 0.00 | 66 | 1014.6 |
| 20260506111804 | 35 | 244 | 3.0 | 7.0 | 0.00 | 0.00 | 0.00 | 65 | 1014.6 |
| 20260506111305 | 35 | 273 | 3.0 | 8.0 | 0.00 | 0.00 | 0.00 | 65 | 1014.5 |
| 20260506110804 | 35 | 241 | 4.0 | 9.0 | 0.00 | 0.00 | 0.00 | 64 | 1014.5 |
| 20260506110304 | 35 | 265 | 3.0 | 9.0 | 0.00 | 0.00 | 0.00 | 64 | 1014.5 |
| 20260506105803 | 35 | 248 | 3.0 | 8.0 | 0.00 | 0.00 | 0.00 | 64 | 1014.4 |
| 20260506105305 | 35 | 280 | 4.0 | 8.0 | 0.00 | 0.00 | 0.00 | 64 | 1014.4 |
| 20260506104802 | 35 | 248 | 4.0 | 10.0 | 0.00 | 0.00 | 0.00 | 64 | 1014.4 |
| 20260506104302 | 35 | 286 | 4.0 | 11.0 | 0.00 | 0.00 | 0.00 | 64 | 1014.3 |
| 20260506103802 | 35 | 280 | 4.0 | 11.0 | 0.00 | 0.00 | 0.00 | 64 | 1014.2 |
| 20260506103302 | 35 | 292 | 4.0 | 10.0 | 0.00 | 0.00 | 0.00 | 64 | 1014.2 |
| 20260506102801 | 35 | 302 | 3.0 | 9.0 | 0.00 | 0.00 | 0.00 | 64 | 1014.1 |
| 20260506102305 | 35 | 318 | 3.0 | 7.0 | 0.00 | 0.00 | 0.00 | 64 | 1014.1 |
| 20260506100800 | 36 | 290 | 4.0 | 9.0 | 0.00 | 0.00 | 0.00 | 63 | 1014.2 |
| 20260506100253 | 36 | 274 | 3.0 | 9.0 | 0.00 | 0.00 | 0.00 | 63 | 1014.2 |
| 20260506095746 | 36 | 279 | 3.0 | 7.0 | 0.00 | 0.00 | 0.00 | 63 | 1014.2 |
| 20260506095241 | 36 | 271 | 3.0 | 8.0 | 0.00 | 0.00 | 0.00 | 62 | 1014.2 |
| 20260506094736 | 36 | 257 | 4.0 | 8.0 | 0.00 | 0.00 | 0.00 | 62 | 1014.1 |
| 20260506093732 | 36 | 284 | 3.0 | 8.0 | 0.00 | 0.00 | 0.00 | 62 | 1014.2 |
| 20260506093232 | 36 | 274 | 2.0 | 6.0 | 0.00 | 0.00 | 0.00 | 61 | 1014.2 |
| 20260506092731 | 36 | 273 | 2.0 | 7.0 | 0.00 | 0.00 | 0.00 | 61 | 1014.2 |
| 20260506092230 | 36 | 291 | 3.0 | 7.0 | 0.00 | 0.00 | 0.00 | 61 | 1014.0 |
| 20260506091730 | 36 | 295 | 3.0 | 7.0 | 0.00 | 0.00 | 0.00 | 62 | 1014.1 |
| 20260506091230 | 36 | 304 | 3.0 | 7.0 | 0.00 | 0.00 | 0.00 | 61 | 1014.0 |
| 20260506090730 | 36 | 283 | 3.0 | 7.0 | 0.00 | 0.00 | 0.00 | 62 | 1014.1 |
| 20260506085731 | 36 | 309 | 3.0 | 8.0 | 0.00 | 0.00 | 0.00 | 62 | 1014.0 |
| 20260506085230 | 36 | 279 | 3.0 | 8.0 | 0.00 | 0.00 | 0.00 | 62 | 1014.0 |
| 20260506084731 | 36 | 291 | 3.0 | 8.0 | 0.00 | 0.00 | 0.00 | 61 | 1014.0 |
| 20260506084231 | 36 | 298 | 3.0 | 8.0 | 0.00 | 0.00 | 0.00 | 61 | 1014.0 |
| 20260506082729 | 36 | 298 | 3.0 | 9.0 | 0.00 | 0.00 | 0.00 | 62 | 1013.9 |
| 20260506082232 | 36 | 302 | 3.0 | 9.0 | 0.00 | 0.00 | 0.00 | 62 | 1014.0 |
| 20260506081729 | 36 | 304 | 4.0 | 9.0 | 0.00 | 0.00 | 0.00 | 62 | 1013.9 |
| 20260506081226 | 36 | 298 | 6.0 | 14.0 | 0.00 | 0.00 | 0.00 | 62 | 1013.9 |
| 20260506080728 | 36 | 321 | 6.0 | 14.0 | 0.00 | 0.00 | 0.00 | 62 | 1013.8 |
| 20260506080227 | 36 | 336 | 6.0 | 11.0 | 0.00 | 0.00 | 0.00 | 63 | 1013.8 |
| 20260506073227 | 36 | 296 | 1.0 | 4.0 | 0.00 | 0.00 | 0.00 | 63 | 1013.8 |
| 20260506072726 | 36 | 292 | 2.0 | 4.0 | 0.00 | 0.00 | 0.00 | 63 | 1013.8 |
| 20260506072226 | 36 | 274 | 2.0 | 7.0 | 0.00 | 0.00 | 0.00 | 63 | 1013.8 |
| 20260506071726 | 37 | 292 | 2.0 | 7.0 | 0.00 | 0.00 | 0.00 | 63 | 1013.8 |
| 20260506071225 | 36 | 292 | 3.0 | 6.0 | 0.00 | 0.00 | 0.00 | 64 | 1013.8 |
| 20260506070725 | 36 | 319 | 2.0 | 6.0 | 0.00 | 0.00 | 0.00 | 64 | 1013.8 |
| 20260506070226 | 36 | 284 | 2.0 | 5.0 | 0.00 | 0.00 | 0.00 | 64 | 1013.8 |
| 20260506062219 | 35 | 301 | 4.0 | 8.0 | 0.00 | 0.00 | 0.00 | 64 | 1013.9 |
| 20260506061719 | 35 | 297 | 3.0 | 8.0 | 0.00 | 0.00 | 0.00 | 65 | 1013.9 |